Location: Newark
(44.3449°N, 4.8694°E)
Time: 19:06:01
(UTC+00:00)

Envisat - Pass Details

Date: 21 January 2020
Orbit: 764 x 766 km, 98.1° (Epoch: 17 February)

Event Time Altitude Azimuth Distance (km) Brightness Sun altitude
Rises 05:20:32 0° 26° (NNE) 3,241 6.5 -19.3°
Reaches altitude 10° 05:23:22 10° 42° (NE) 2,309 5.9 -18.8°
Maximum altitude 05:27:15 22° 92° (E) 1,642 5.6 -18.1°
Drops below altitude 10° 05:31:06 10° 142° (SE) 2,296 6.2 -17.4°
Sets 05:33:54 0° 158° (SSE) 3,216 6.7 -16.9°
